When you browse on this site, cookies collect data to enhance your experience and personalize the content and advertising you see.
Visit our Privacy Policy to learn more. By continuing to use the site, you agree to this use of cookies and data.
  • In United Kingdom
  • List of Countries
  • For 7 days
  • Water Temperature
  • Satellite Maps
  • Weather Map
  • Weather Widgets
  • user-avatar
    Login

    Hourly Weather Tunja

    Today, 21 November, Wednesday

    Time Temperature Precipitation Wind Pressure Humidity
    00:00 +11°C° 0.3 mm 1 mps 549 mmHg 97%
    01:00 +11°C° 0 mm 1 mps 549 mmHg 96%
    02:00 +11°C° 1.3 mm 1 mps 549 mmHg 96%
    03:00 +11°C° 1.3 mm 1 mps 549 mmHg 96%
    04:00 +10°C° 1.3 mm 0 mps 549 mmHg 96%
    05:00 +10°C° 1.6 mm 0 mps 549 mmHg 95%
    06:00 +11°C° 1.6 mm 0 mps 550 mmHg 94%
    07:00 +11°C° 0 mm 0 mps 550 mmHg 92%
    08:00 +12°C° 1.7 mm 0 mps 551 mmHg 90%
    09:00 +12°C° 1.7 mm 0 mps 551 mmHg 89%
    10:00 +14°C° 1.7 mm 1 mps 552 mmHg 87%
    11:00 +14°C° 1.7 mm 1 mps 551 mmHg 87%
    12:00 +14°C° 1.7 mm 1 mps 551 mmHg 86%
    13:00 +14°C° 1.7 mm 1 mps 550 mmHg 86%
    14:00 +14°C° 1 mm 1 mps 550 mmHg 86%
    15:00 +14°C° 1 mm 1 mps 549 mmHg 87%
    16:00 +13°C° 1 mm 1 mps 549 mmHg 87%
    17:00 +13°C° 0.6 mm 1 mps 549 mmHg 89%
    18:00 +12°C° 0.6 mm 1 mps 548 mmHg 91%
    19:00 +11°C° 0.6 mm 1 mps 548 mmHg 93%
    20:00 +11°C° 0.5 mm 1 mps 549 mmHg 92%
    21:00 +11°C° 0.5 mm 1 mps 549 mmHg 92%
    22:00 +11°C° 0.5 mm 1 mps 549 mmHg 92%
    23:00 +11°C° 0.2 mm 1 mps 549 mmHg 92%

    Tomorrow, 22 November, Thursday

    Time Temperature Precipitation Wind Pressure Humidity
    00:00 +10°C° 0.2 mm 1 mps 549 mmHg 92%
    01:00 +10°C° 0.2 mm 1 mps 548 mmHg 92%
    02:00 +10°C° 0 mm 1 mps 548 mmHg 91%
    03:00 +9°C° 0 mm 1 mps 548 mmHg 91%
    04:00 +9°C° 0 mm 1 mps 548 mmHg 91%
    05:00 +10°C° 0 mm 1 mps 548 mmHg 89%
    06:00 +11°C° 0 mm 1 mps 549 mmHg 88%
    07:00 +11°C° 0 mm 1 mps 550 mmHg 86%
    08:00 +13°C° 0 mm 1 mps 551 mmHg 79%
    09:00 +16°C° 0 mm 1 mps 552 mmHg 71%
    10:00 +19°C° 0 mm 1 mps 553 mmHg 64%
    11:00 +19°C° 0.2 mm 1 mps 553 mmHg 66%
    12:00 +19°C° 0.2 mm 1 mps 552 mmHg 68%
    13:00 +18°C° 0.2 mm 1 mps 551 mmHg 71%
    14:00 +18°C° 0.6 mm 1 mps 551 mmHg 76%
    15:00 +16°C° 0.6 mm 1 mps 550 mmHg 81%
    16:00 +15°C° 0.6 mm 1 mps 549 mmHg 87%
    17:00 +14°C° 0.6 mm 1 mps 549 mmHg 90%
    18:00 +13°C° 0.6 mm 1 mps 549 mmHg 94%
    19:00 +12°C° 0.6 mm 1 mps 548 mmHg 97%
    20:00 +12°C° 0.7 mm 1 mps 549 mmHg 97%
    21:00 +12°C° 0.7 mm 1 mps 549 mmHg 97%
    22:00 +11°C° 0.7 mm 1 mps 550 mmHg 96%
    23:00 +11°C° 0.3 mm 1 mps 549 mmHg 96%

    Day after tomorrow, 23 November, Friday

    Time Temperature Precipitation Wind Pressure Humidity
    00:00 +11°C° 0.3 mm 1 mps 549 mmHg 96%
    01:00 +11°C° 0.3 mm 1 mps 548 mmHg 96%
    02:00 +10°C° 0.1 mm 1 mps 548 mmHg 96%
    03:00 +10°C° 0.1 mm 1 mps 548 mmHg 96%
    04:00 +10°C° 0.1 mm 1 mps 548 mmHg 96%
    05:00 +10°C° 0.3 mm 0 mps 548 mmHg 95%
    06:00 +10°C° 0.3 mm 0 mps 549 mmHg 95%
    07:00 +10°C° 0.3 mm 0 mps 549 mmHg 94%
    08:00 +11°C° 0.2 mm 0 mps 550 mmHg 91%
    09:00 +12°C° 0.2 mm 0 mps 551 mmHg 88%
    10:00 +13°C° 0.2 mm 0 mps 551 mmHg 85%
    11:00 +15°C° 0.3 mm 1 mps 551 mmHg 82%
    12:00 +16°C° 0.3 mm 1 mps 551 mmHg 79%
    13:00 +18°C° 0.3 mm 1 mps 551 mmHg 76%
    14:00 +16°C° 1.2 mm 1 mps 550 mmHg 81%
    15:00 +15°C° 1.2 mm 1 mps 549 mmHg 87%
    16:00 +14°C° 1.2 mm 1 mps 548 mmHg 92%
    17:00 +13°C° 1.1 mm 1 mps 548 mmHg 94%
    18:00 +13°C° 1.1 mm 1 mps 548 mmHg 96%
    19:00 +12°C° 1.1 mm 1 mps 548 mmHg 97%
    20:00 +12°C° 0.8 mm 1 mps 549 mmHg 97%
    21:00 +12°C° 0.8 mm 1 mps 549 mmHg 97%
    22:00 +12°C° 0.8 mm 1 mps 550 mmHg 97%
    23:00 +12°C° 0.7 mm 1 mps 549 mmHg 97%

    24 November, Saturday

    Time Temperature Precipitation Wind Pressure Humidity
    00:00 +11°C° 0.7 mm 1 mps 549 mmHg 97%
    01:00 +11°C° 0.7 mm 1 mps 549 mmHg 97%
    02:00 +11°C° 0.6 mm 1 mps 548 mmHg 97%
    03:00 +11°C° 0.6 mm 1 mps 548 mmHg 97%
    04:00 +11°C° 0.6 mm 1 mps 548 mmHg 97%
    05:00 +11°C° 0.3 mm 1 mps 548 mmHg 95%
    06:00 +11°C° 0.3 mm 1 mps 549 mmHg 94%
    07:00 +12°C° 0.3 mm 1 mps 550 mmHg 93%
    08:00 +13°C° 0.2 mm 1 mps 551 mmHg 87%
    09:00 +15°C° 0.2 mm 1 mps 552 mmHg 80%
    10:00 +18°C° 0.2 mm 1 mps 553 mmHg 74%
    11:00 +16°C° 0.7 mm 1 mps 552 mmHg 76%
    12:00 +16°C° 0.7 mm 1 mps 551 mmHg 79%
    13:00 +16°C° 0.7 mm 1 mps 550 mmHg 81%
    14:00 +15°C° 0.9 mm 1 mps 550 mmHg 85%
    15:00 +15°C° 0.9 mm 1 mps 549 mmHg 88%
    16:00 +14°C° 0.9 mm 1 mps 548 mmHg 91%
    17:00 +14°C° 0.7 mm 1 mps 548 mmHg 93%
    18:00 +13°C° 0.7 mm 1 mps 548 mmHg 95%
    19:00 +12°C° 0.7 mm 1 mps 548 mmHg 97%
    20:00 +12°C° 1.1 mm 1 mps 549 mmHg 97%
    21:00 +12°C° 1.1 mm 1 mps 549 mmHg 97%
    22:00 +12°C° 1.1 mm 1 mps 550 mmHg 97%
    23:00 +12°C° 1.3 mm 1 mps 549 mmHg 97%

    25 November, Sunday

    Time Temperature Precipitation Wind Pressure Humidity
    00:00 +12°C° 1.3 mm 1 mps 549 mmHg 97%
    01:00 +11°C° 1.3 mm 1 mps 549 mmHg 97%
    02:00 +11°C° 0.7 mm 1 mps 549 mmHg 97%
    03:00 +10°C° 0.7 mm 0 mps 548 mmHg 97%
    04:00 +10°C° 0.7 mm 0 mps 548 mmHg 97%
    05:00 +10°C° 0.5 mm 0 mps 549 mmHg 95%
    06:00 +11°C° 0.5 mm 0 mps 549 mmHg 94%
    07:00 +11°C° 0.5 mm 0 mps 550 mmHg 93%
    08:00 +13°C° 0.4 mm 1 mps 550 mmHg 89%
    09:00 +14°C° 0.4 mm 1 mps 551 mmHg 84%
    10:00 +15°C° 0.4 mm 1 mps 552 mmHg 79%
    11:00 +16°C° 0.2 mm 1 mps 551 mmHg 77%
    12:00 +16°C° 0.2 mm 1 mps 551 mmHg 75%
    13:00 +16°C° 0.2 mm 1 mps 550 mmHg 73%
    14:00 +16°C° 0.2 mm 1 mps 550 mmHg 76%
    15:00 +16°C° 0.2 mm 1 mps 549 mmHg 79%
    16:00 +15°C° 0.2 mm 1 mps 549 mmHg 81%
    17:00 +13°C° 0.2 mm 0 mps 549 mmHg 86%
    18:00 +12°C° 0.2 mm 0 mps 548 mmHg 92%
    19:00 +11°C° 0.2 mm 0 mps 548 mmHg 97%
    20:00 +10°C° 0.1 mm 0 mps 548 mmHg 97%
    21:00 +10°C° 0.1 mm 0 mps 549 mmHg 96%
    22:00 +10°C° 0.1 mm 0 mps 549 mmHg 96%
    23:00 +10°C° 0.1 mm 0 mps 549 mmHg 96%

    26 November, Monday

    Time Temperature Precipitation Wind Pressure Humidity
    00:00 +10°C° 0.1 mm 0 mps 548 mmHg 96%
    01:00 +9°C° 0.1 mm 0 mps 548 mmHg 95%
    02:00 +9°C° 0 mm 0 mps 548 mmHg 95%
    03:00 +10°C° 0 mm 1 mps 547 mmHg 95%
    04:00 +10°C° 0 mm 1 mps 547 mmHg 95%
    05:00 +9°C° 0 mm 0 mps 548 mmHg 93%
    06:00 +10°C° 0 mm 0 mps 549 mmHg 92%
    07:00 +11°C° 0 mm 0 mps 550 mmHg 90%
    08:00 +13°C° 0 mm 0 mps 551 mmHg 83%
    09:00 +14°C° 0 mm 0 mps 552 mmHg 76%
    10:00 +18°C° 0 mm 1 mps 553 mmHg 69%
    11:00 +18°C° 0.2 mm 1 mps 552 mmHg 71%
    12:00 +18°C° 0.2 mm 1 mps 551 mmHg 72%
    13:00 +18°C° 0.2 mm 1 mps 550 mmHg 74%
    14:00 +16°C° 0.7 mm 1 mps 550 mmHg 78%
    15:00 +16°C° 0.7 mm 1 mps 549 mmHg 82%
    16:00 +15°C° 0.7 mm 1 mps 548 mmHg 86%
    17:00 +14°C° 0.6 mm 1 mps 548 mmHg 90%
    18:00 +13°C° 0.6 mm 1 mps 548 mmHg 93%
    19:00 +10°C° 0.6 mm 0 mps 548 mmHg 97%
    20:00 +10°C° 0.3 mm 0 mps 548 mmHg 97%
    21:00 +11°C° 0.3 mm 1 mps 548 mmHg 97%
    22:00 +11°C° 0.3 mm 1 mps 549 mmHg 97%
    23:00 +11°C° 0.1 mm 1 mps 548 mmHg 96%
    Show more